Regional Weather Roundup
Issued by NWS

Home | Current Version | Previous Version | Text Only | Print | Product List | Glossary Off
Versions: 1 2 3 4 5 6 7 8 9 10 11 12 13 14 15 16 17 18 19 20 21 22 23 24 25 26 27 28 29 30 31 32 33 34 35 36 37 38 39 40 41 42 43 44 45 46 47 48 49 50

000
ASUS43 KBIS 281410
RWRND

NORTH DAKOTA REGIONAL WEATHER ROUNDUP
NATIONAL WEATHER SERVICE BISMARCK ND
900 AM CDT WED SEP 28 2016

NOTE: "FAIR" INDICATES FEW OR NO CLOUDS BELOW 12,000 FEET WITH NO
SIGNIFICANT WEATHER AND/OR OBSTRUCTIONS TO VISIBILITY.


NDZ001>003-009>011-017-281500-
NORTHWEST NORTH DAKOTA

CITY           SKY/WX    TMP DP  RH WIND       PRES   REMARKS
WILLISTON      SUNNY     51  47  86 N9        30.23R
MINOT          SUNNY     46  41  82 SE3       30.23R
MINOT AFB      SUNNY     44  40  87 SE5       30.23R
$$

NDZ018>021-031>035-040>046-281500-
SOUTHWEST NORTH DAKOTA

CITY           SKY/WX    TMP DP  RH WIND       PRES   REMARKS
BISMARCK       SUNNY     41  38  89 NE6       30.24R
DICKINSON      SUNNY     50  44  80 S3        30.20R
GARRISON         N/A     47  42  83 E3        30.23R
HETTINGER ARPT SUNNY     50  46  86 CALM      30.23R
$$

NDZ004>008-012>016-024-026-027-054-281500-
NORTHEAST NORTH DAKOTA

CITY           SKY/WX    TMP DP  RH WIND       PRES   REMARKS
GRAND FORKS    MOSUNNY   47  43  86 N3        30.26R
GRND FRKS AFB  SUNNY     46  45  98 N6        30.26R
DEVILS LAKE    CLOUDY    47  45  93 NE5       30.27R
$$

NDZ022-023-025-028>030-036>039-047>053-281500-
SOUTHEAST NORTH DAKOTA

CITY           SKY/WX    TMP DP  RH WIND       PRES   REMARKS
FARGO          CLOUDY    49  45  86 NE5       30.25R
JAMESTOWN      CLOUDY    48  44  86 N3        30.26R
$$




USA.gov is the U.S. government's official web portal to all federal, state and local government web resources and services.